sat.trackr.live / text

‹ back to catalog

HEAD-1

NORAD 43011 · 2017-072B

PAYLOAD ACTIVE UNKNOWN

§ Identity

Operator
Country
PRC
Launch date
2017-11-14
Launch site
TAISC
Launch vehicle
Mass (kg)
RCS (m²)

External: N2YO · Heavens-Above · Gunter

§ Orbital elements

Epoch: 2026-09-20T04:42:13.453056Z

Period
100.78 min
Inclination
98.9542°
Eccentricity
0.0008975
Mean motion
14.28846453 rev/d
Perigee alt
789.2 km
Apogee alt
802.0 km
Semi-major
7,173.7 km
B*
6.7983e-5
RAAN
284.2376°
Arg perigee
235.5652°
Mean anomaly
124.4681°
Rev number
46,092

§ Raw data

HEAD-11 43011U 17072B   26263.19598904  .00000125  00000+0  67983-4 0  99942 43011  98.9542 284.2376 0008975 235.5652 124.4681 14.28846453460929

JSON: /api/v1/satellites/43011 · /tle

For live sub-satellite position, see the globe view (requires WebGL).

§ Visibility from observer

Set your observer location to see the next 7 days of passes ≥ 10°. The values pass through the URL so the page stays shareable.

No JS? Fill the form by hand. The geolocation button needs JavaScript.